OPS 4682 DEB, 38360

Orbit data source: Space-Track

OPS 4682 DEB, 38360 is space debris in LEO originally from a launch on Sat, 03 Apr 1965 UTC launched from the Air Force Western Test Range (AFWTR). Debris objects in space refer to the collection of defunct objects orbiting the Earth. Examples of debris include non-operational satellites, rocket bodies, and fragments generated from explosions, collisions, or faulty payload assembly.

Loading next visibility...
Identifier
38360, 1965-027BM
Orbit
LEO
Country
Flag of USUS
Related business
Manufacturer
Unknown
Mission
Spacecraft
Bus & Motor
Unknown
Mass
Unknown
Launch date (UTC)
1965-04-03 (61 years ago)
Launch vehicle
Unknown
Launch site
Air Force Western Test Range (AFWTR)
Object type
Payload
Rocket body
Debris
Shape & HBR
Unknown shape, 0.1 m
Radar Cross Section
Medium (>0.1 m² and <1 m²)

Expand to show TLE details & history
Last TLE update: 1 day ago

TLE from 1 day ago
0 OPS 4682 DEB
1 38360U 65027BM  26206.88232058  .00000758  00000-0  24565-2 0  9996
2 38360  90.2380   5.6653 0035858 123.9492 236.5048 13.00828522669851
Epoch: 2026-07-25T21:10Z
TLE epoch observation values (Epoch: 2026-07-25T21:10:32.498Z)
Latitude
0.00003°
Longitude
104.44166°
Altitude
1,276.911 km
Speed
7.21 km/s
True Right ascension
00h 22m 39s
True Declination
0° 00' 00"
Sunlit
Object was in daylight at epoch
Visualization orbit readout
Latitude
Unknown
Longitude
Unknown
Altitude
Unknown
Speed
Unknown
Apparent Right ascension
Unknown
Apparent Declination
Unknown
Sunlit
N/A
Visualization observer readout
Local Sidereal Time
21:03:31
Azimuth
Unknown
Elevation
Unknown
Doppler factor
Unknown
Orbital elements
Apogee altitude
1,283.342 km
Perigee altitude
1,228.593 km
Semi-major axis
7,634.105 km
Eccentricity
0.00359
Inclination
90.238°
RAAN
5.6653°
Arg. of periapsis
123.9492°
True anomaly
236.16298°
Mean anomaly
236.5048°
Eccentric anomaly
236.33381°
Mean motion
3.25391 °/min
Orbital period
110.64 mins
BSTAR
0.0024565
Loading maneuver chart data...
Computing Atmospheric mass density...
Loading historical data...
Loading historical data...
Loading historical data...
Loading historical data...
Loading historical data...
Loading historical data...
Loading historical data...

Documentation

Showing up to 5 results
|